Regional Weather Roundup
Issued by NWS

Home | Current Version | Previous Version | Text Only | Print | Product List | Glossary On
Versions: 1 2 3 4 5 6 7 8 9 10 11 12 13 14 15 16 17 18 19 20 21 22 23 24 25 26 27 28 29 30 31 32 33 34 35 36 37 38 39 40 41 42 43 44 45 46 47 48 49 50
197
ASUS43 KBIS 112010
RWRND
NORTH DAKOTA REGIONAL WEATHER ROUNDUP
NATIONAL WEATHER SERVICE EASTERN NORTH DAKOTA/GRAND FORKS ND
200 PM CST THU FEB 11 2016

  NOTE: "FAIR" INDICATES FEW OR NO CLOUDS BELOW 12,000 FEET WITH NO
  SIGNIFICANT WEATHER AND/OR OBSTRUCTIONS TO VISIBILITY.

NDZ001>003-009>011-017-112100-
...NORTHWEST NORTH DAKOTA...

CITY           SKY/WX    TMP DP  RH WIND       PRES   REMARKS
WILLISTON      FLURRIES  27  19  72 NE7       30.17R WCI  19
MINOT          CLOUDY    20  11  68 N6        30.18R WCI  12
MINOT AFB      FLURRIES  19  14  80 CALM      30.18R
$$

NDZ018>021-031>035-040>046-112100-
...SOUTHWEST NORTH DAKOTA...

CITY           SKY/WX    TMP DP  RH WIND       PRES   REMARKS
BISMARCK       LGT SNOW  26  18  71 NE5       30.14S WCI  20
DICKINSON      LGT SNOW  24  19  81 NE12      30.06S WCI  13
GARRISON         N/A     20  13  74 VRB5      30.14S WCI  13
HETTINGER      LGT SNOW  31  27  85 NE10      30.04R FOG     WCI  22
$$

NDZ004>008-012>016-024-026-027-054-112100-
...NORTHEAST NORTH DAKOTA...

CITY           SKY/WX    TMP DP  RH WIND       PRES   REMARKS
GRAND FORKS    CLOUDY    14   5  67 W6        30.22F WCI   5
GRAND FORKS AF FLURRIES  14   5  67 W6        30.22S WCI   5
DEVILS LAKE    FLURRIES  12   6  77 VRB5      30.18F WCI   4
$$

NDZ022-023-025-028>030-036>039-047>053-112100-
...SOUTHEAST NORTH DAKOTA...

CITY           SKY/WX    TMP DP  RH WIND       PRES   REMARKS
JAMESTOWN      CLOUDY    16   9  74 CALM      30.15F
FARGO          CLOUDY    15  -2  46 VRB3      30.21F
WAHPETON       CLOUDY    14   7  73 S6        30.21F WCI   5
$$




USA.gov is the U.S. government's official web portal to all federal, state and local government web resources and services.